This demonstration page uses our WeatherBlox Daily Observations layout. Learn more.

Left ArrowRight Arrow

39.01783, -85.05884

Hourly Observations for August 17, 2016

Temp ( °F °C ) Dew Point ( °F °C ) Humidity (%) Winds ( mph kmh ) Pressure ( in mb ) Visibility ( mi km ) Precip ( " mm )
12:52 am 00:52 Cloudy 73 22.8 73 22.8 100 100 W 3 6 30.14 1021 10 16 N/A
1:52 am 01:52 Cloudy with Light Rain 73 22.8 72 22.2 96 96 SSW 3 6 30.15 1021 8 13 0.02 0.51
2:52 am 02:52 Cloudy with Light Rain 73 22.8 72 22.2 96 96 N N/A 30.13 1020 7 11 0.01 0.25
3:24 am 03:24 Cloudy with Light Rain 72 22 72 22 100 100 N N/A 30.12 1020 10 16 N/A
3:52 am 03:52 Cloudy with Light Rain 72 22.2 72 22.2 100 100 N N/A 30.13 1020 10 16 N/A
4:29 am 04:29 Cloudy with Light Rain 72 22 72 22 100 100 SSW 5 7 30.12 1020 6 10 0.01 0.25
4:52 am 04:52 Cloudy with Light Rain 72 22.2 72 22.2 100 100 SW 5 7 30.13 1020 5 8 0.03 0.76
5:18 am 05:18 Cloudy with Light Rain 72 22 72 22 100 100 N N/A 30.12 1020 9 14 0.01 0.25
5:52 am 05:52 Cloudy with Light Rain 72 22.2 72 22.2 100 100 N N/A 30.12 1020 7 11 0.01 0.25
6:26 am 06:26 Cloudy with Light Rain 72 22 72 22 100 100 N N/A 30.12 1020 9 14 N/A
6:52 am 06:52 Cloudy 72 22.2 72 22.2 100 100 S 3 6 30.12 1020 8 13 0.01 0.25
7:03 am 07:03 Cloudy 72 22 72 22 100 100 N N/A 30.12 1020 7 11 N/A
7:35 am 07:35 Cloudy with Light Rain 72 22 72 22 100 100 S 5 7 30.12 1020 2 3 0.01 0.25
7:41 am 07:41 Cloudy with Light Rain 72 22 72 22 100 100 S 3 6 30.12 1020 3 5 0.01 0.25
7:52 am 07:52 Cloudy with Light Rain 72 22.2 72 22.2 100 100 S 5 7 30.13 1020 3 5 0.01 0.25
7:58 am 07:58 Cloudy with Rain 72 22 72 22 100 100 S 6 9 30.12 1020 2 3 N/A
8:04 am 08:04 Cloudy with Rain 72 22 72 22 100 100 S 5 7 30.12 1020 2 2 N/A
8:12 am 08:12 Cloudy with Rain 72 22 72 22 100 100 S 3 6 30.12 1020 2 3 0.03 0.76
8:14 am 08:14 Cloudy with Light Rain 72 22 72 22 100 100 SSW 3 6 30.12 1020 2 2 N/A
8:17 am 08:17 Cloudy with Light Rain 72 22 72 22 100 100 N N/A 30.12 1020 2 3 0.03 0.76
8:27 am 08:27 Cloudy with Light Rain 72 22 72 22 100 100 N N/A 30.12 1020 2 3 0.05 1.27
8:39 am 08:39 Cloudy with Light Rain 72 22 72 22 100 100 N N/A 30.12 1020 1 2 0.09 2.29
8:52 am 08:52 Cloudy with Light Rain 72 22.2 72 22.2 100 100 WSW 3 6 30.13 1020 2 2 0.12 3.05
8:57 am 08:57 Cloudy with Heavy Rain 72 22 72 22 100 100 W 5 7 30.12 1020 1 1 0.04 1.02
9:12 am 09:12 Cloudy with Heavy Rain 72 22 72 22 100 100 N N/A 30.12 1020 0 0 N/A
9:46 am 09:46 Cloudy with Heavy Rain 72 22 72 22 100 100 SSE 3 6 30.12 1020 1 1 N/A
9:52 am 09:52 Cloudy with Heavy Rain 71 21.7 71 21.7 100 100 SSE 5 7 30.13 1020 1 1 0.90 22.86
10:04 am 10:04 Cloudy with Heavy Rain 72 22 72 22 100 100 N N/A 30.12 1020 1 1 0.06 1.52
10:19 am 10:19 Cloudy with Rain 72 22 72 22 100 100 N N/A 30.12 1020 1 1 0.14 3.56
10:46 am 10:46 Cloudy with Mist and Fog 72 22 72 22 100 100 SSW 7 11 30.12 1020 5 8 N/A
10:52 am 10:52 Cloudy with Mist and Fog 73 22.8 72 22.2 96 96 SSW 6 9 30.13 1020 5 8 0.18 4.57
11:10 am 11:10 Cloudy 73 23 72 22 94 94 SW 10 17 30.12 1020 10 16 N/A
11:52 am 11:52 Cloudy with Mist and Fog 73 22.8 72 22.2 96 96 SW 7 11 30.13 1020 5 8 N/A
11:57 am 11:57 Cloudy 73 23 72 22 94 94 SW 8 13 30.12 1020 10 16 N/A
12:41 pm 12:41 Cloudy 75 24 73 23 94 94 SW 7 11 30.12 1020 10 16 N/A
12:52 pm 12:52 Cloudy 76 24.4 73 22.8 91 91 WSW 6 9 30.11 1020 10 16 N/A
1:26 pm 13:26 Cloudy 77 25 73 23 89 89 WSW 5 7 30.09 1019 10 16 N/A
1:52 pm 13:52 Cloudy 77 25 74 23.3 90 90 N N/A 30.09 1019 10 16 N/A
1:59 pm 13:59 Cloudy 79 26 73 23 84 84 S 3 6 30.09 1019 10 16 N/A
2:34 pm 14:34 Cloudy with Light Rain 75 24 73 23 94 94 N 5 7 30.09 1019 6 10 N/A
2:52 pm 14:52 Cloudy 78 25.6 72 22.2 82 82 WNW 5 7 30.07 1018 10 16 0.01 0.25
3:52 pm 15:52 Mostly Cloudy 82 27.8 72 22.2 72 72 W 3 6 30.05 1018 10 16 N/A
4:52 pm 16:52 Cloudy 81 27.2 72 22.2 74 74 WSW 5 7 30.05 1018 10 16 N/A
5:52 pm 17:52 Cloudy 81 27.2 72 22.2 74 74 W 7 11 30.06 1018 10 16 N/A
6:52 pm 18:52 Cloudy 79 26.1 71 21.7 77 77 WNW 7 11 30.06 1018 10 16 N/A
7:52 pm 19:52 Cloudy 78 25.6 73 22.8 85 85 WNW 7 11 30.06 1018 10 16 N/A
8:52 pm 20:52 Mostly Cloudy 76 24.4 73 22.8 91 91 N N/A 30.08 1019 10 16 N/A
9:52 pm 21:52 Mostly Cloudy 76 24.4 73 22.8 91 91 WSW 3 6 30.09 1019 10 16 N/A
10:52 pm 22:52 Mostly Cloudy 73 22.8 73 22.8 100 100 WSW 3 6 30.10 1019 9 14 N/A
11:52 pm 23:52 Cloudy 74 23.3 73 22.8 97 97 N N/A 30.11 1020 9 14 N/A

Powered by AerisWeather